{"data":{"norad_id":48441,"intl_designator":"2021-040P","name":"STARLINK-2702","alt_names":[],"object_type":"PAYLOAD","status":"ACTIVE","operator":null,"country":"US","launch_date":"2021-05-09","launch_site_code":"AFETR","launch_vehicle":null,"mission":null,"orbit_class":"UNKNOWN","rcs_meters":null,"size_class":null,"mass_kg":null,"dimensions":null,"purposes":["comms"],"wikipedia_slug":null,"has_3d_model":false,"image_url":null,"decayed_at":null,"tle_current":{"epoch":"2026-05-25T02:29:15.265824Z","epoch_age_seconds":62569,"freshness":"FRESH","line1":"1 48441U 21040P   26145.10364891  .00000925  00000+0  41552-4 0  9994","line2":"2 48441  53.1586 182.8105 0001181  62.4105 297.7016 15.31701410278388","mean_motion":15.3170141,"eccentricity":0.0001181,"inclination_deg":53.1586,"raan_deg":182.8105,"arg_perigee_deg":62.4105,"mean_anomaly_deg":297.7016,"bstar":4.1552e-5,"rev_number":27838,"period_min":94.01310141772299,"perigee_km":469.9269402155,"apogee_km":471.54464396899,"semimajor_km":6848.8727920922,"source":"CELESTRAK","updated_at":"2026-05-25T13:38:16.716341Z"}}}